Weather History for Montrose, CO

Change the Weather History Date:

Friday, January 6, 2012

  Actual Average Record
Temperature  
Mean Temperature 28 °F 25 °F  
Max Temperature 40 °F 37 °F 48 °F (2006)
Min Temperature 15 °F 13 °F -5 °F (2004)
Degree Days  
Heating Degree Days 37 40  
Month to date heating degree days 230 240  
Since 1 July heating degree days 2805 2848  
Cooling Degree Days 0 0  
Month to date cooling degree days 0  
Year to date cooling degree days 0  
Moisture  
Dew Point 17 °F    
Average Humidity 64    
Maximum Humidity 84    
Minimum Humidity 44    
Precipitation  
Precipitation 0.00 in 0.02 in 0.18 in (2008)
Month to date precipitation 0.00 0.13  
Year to date precipitation 0.00 0.13  
Sea Level Pressure  
Sea Level Pressure 30.16 in    
Wind  
Wind Speed 4 mph (SSE)    
Max Wind Speed 10 mph    
Max Gust Speed 21 mph    
Visibility 10 miles    
Events      
T = Trace of Precipitation, MM = Missing Value Source: NWS Daily Summary

Daily Weather History Graph

Daily Weather History Graph

Search for Another Location

Airport:

Trip Planner

Search our weather history database for the weather conditions in past years. The results will help you decide how hot, cold, wet, or windy it might be!

Date:

Astronomy

Jan. 06, 2012 Rise Set
Actual Time 7:29 AM MST 5:05 PM MST
Civil Twilight 6:59 AM MST 5:34 PM MST
Nautical Twilight 6:26 AM MST 6:07 PM MST
Astronomical Twilight 5:54 AM MST 6:40 PM MST
Moon 2:58 PM MST (1/6) 5:11 AM MST (1/6)
Length of Visible Light 10h 34m
Length of Day
9h 36m
Waxing Gibbous, 93% of the Moon is Illuminated
Jan 6
Waxing Gibbous
Jan 9
Full
Jan 16
Last Quarter
Jan 23
New
Jan 30
First Quarter

Hourly Weather History & Observations

Time (MST) Temp. Windchill Dew Point Humidity Pressure Visibility Wind Dir Wind Speed Gust Speed Precip Events Conditions
1:53 AM 18.0 °F 11.1 °F 12.9 °F 81% 30.19 in 10.0 mi South 4.6 mph - N/A   Clear
2:53 AM 19.9 °F 11.1 °F 14.0 °F 78% 30.17 in 10.0 mi SE 6.9 mph - N/A   Clear
3:53 AM 18.0 °F - 12.9 °F 81% 30.17 in 10.0 mi Calm Calm - N/A   Clear
4:53 AM 19.0 °F 9.0 °F 14.0 °F 81% 30.18 in 10.0 mi SSE 8.1 mph - N/A   Clear
5:53 AM 17.1 °F 11.7 °F 10.9 °F 77% 30.23 in 10.0 mi South 3.5 mph - N/A   Clear
6:53 AM 19.0 °F 9.0 °F 14.0 °F 81% 30.22 in 10.0 mi South 8.1 mph - N/A   Clear
7:53 AM 19.9 °F - 14.0 °F 78% 30.24 in 10.0 mi Calm Calm - N/A   Partly Cloudy
8:53 AM 23.0 °F - 16.0 °F 74% 30.26 in 8.0 mi Calm Calm - N/A   Clear
9:53 AM 28.9 °F - 18.0 °F 64% 30.27 in 10.0 mi Calm Calm - N/A   Clear
11:53 AM 37.0 °F - 18.0 °F 46% 30.17 in 10.0 mi Calm Calm - N/A   Clear
12:53 PM 37.9 °F 35.5 °F 19.9 °F 48% 30.14 in 10.0 mi North 3.5 mph - N/A   Clear
1:53 PM 37.9 °F 33.5 °F 21.9 °F 53% 30.14 in 10.0 mi NNW 5.8 mph - N/A   Clear
2:53 PM 37.9 °F - 23.0 °F 55% 30.13 in 10.0 mi Calm Calm - N/A   Clear
4:53 PM 37.0 °F 34.5 °F 21.9 °F 54% 30.13 in 10.0 mi SSE 3.5 mph - N/A   Clear
5:53 PM 32.0 °F 27.5 °F 21.9 °F 66% 30.15 in 10.0 mi SE 4.6 mph - N/A   Clear
6:53 PM 27.0 °F 20.5 °F 19.9 °F 75% 30.15 in 10.0 mi SSE 5.8 mph - N/A   Clear
7:53 PM 25.0 °F 19.3 °F 19.0 °F 78% 30.14 in 10.0 mi SE 4.6 mph - N/A   Clear
8:53 PM 23.0 °F 17.0 °F 17.1 °F 78% 30.14 in 10.0 mi ESE 4.6 mph - N/A   Clear
9:53 PM 21.0 °F 12.4 °F 17.1 °F 85% 30.11 in 9.0 mi SE 6.9 mph - N/A   Clear
10:53 PM 25.0 °F - 19.0 °F 78% 30.07 in 10.0 mi North - - N/A   Clear
11:53 PM 25.0 °F 19.3 °F 19.0 °F 78% 30.04 in 10.0 mi South 4.6 mph - N/A   Clear